TimeEDT,TemperatureF,Dew PointF,Humidity,Sea Level PressureIn,VisibilityMPH,Wind Direction,Wind SpeedMPH,Gust SpeedMPH,PrecipitationIn,Events,Conditions,WindDirDegrees,DateUTC
12:53 AM,59.0,53.1,81,30.10,10.0,South,6.9,-,N/A,,Partly Cloudy,190,2012-10-04 04:53:00
1:53 AM,57.0,52.0,83,30.11,10.0,South,5.8,-,N/A,,Clear,190,2012-10-04 05:53:00
2:53 AM,60.1,53.1,78,30.11,10.0,South,6.9,-,N/A,,Overcast,190,2012-10-04 06:53:00
3:53 AM,59.0,52.0,78,30.10,10.0,SSW,5.8,-,N/A,,Partly Cloudy,200,2012-10-04 07:53:00
4:53 AM,55.9,51.1,84,30.11,10.0,South,6.9,-,N/A,,Clear,190,2012-10-04 08:53:00
5:53 AM,55.9,51.1,84,30.10,10.0,SSW,6.9,-,N/A,,Clear,200,2012-10-04 09:53:00
6:53 AM,57.0,50.0,77,30.11,10.0,SSW,9.2,-,N/A,,Clear,200,2012-10-04 10:53:00
7:53 AM,55.9,50.0,80,30.12,10.0,SSW,6.9,-,N/A,,Clear,200,2012-10-04 11:53:00
8:53 AM,59.0,51.1,75,30.12,10.0,SSW,10.4,-,N/A,,Clear,210,2012-10-04 12:53:00
9:53 AM,62.1,52.0,70,30.12,10.0,WSW,13.8,-,N/A,,Clear,240,2012-10-04 13:53:00
10:53 AM,66.0,52.0,60,30.13,10.0,SW,12.7,-,N/A,,Clear,230,2012-10-04 14:53:00
11:53 AM,66.0,52.0,60,30.14,10.0,SW,12.7,-,N/A,,Overcast,230,2012-10-04 15:53:00
12:53 PM,69.1,53.1,57,30.13,10.0,SW,9.2,17.3,N/A,,Overcast,230,2012-10-04 16:53:00
1:53 PM,72.0,52.0,49,30.10,10.0,SW,10.4,-,N/A,,Scattered Clouds,220,2012-10-04 17:53:00
2:53 PM,73.9,51.1,45,30.08,10.0,WSW,12.7,21.9,N/A,,Clear,250,2012-10-04 18:53:00
3:53 PM,75.0,50.0,41,30.07,10.0,SW,16.1,24.2,N/A,,Clear,220,2012-10-04 19:53:00
4:53 PM,75.0,51.1,43,30.06,10.0,SW,12.7,-,N/A,,Partly Cloudy,220,2012-10-04 20:53:00
6:53 PM,72.0,51.1,48,30.06,10.0,SW,6.9,-,N/A,,Clear,220,2012-10-04 22:53:00
7:53 PM,66.9,51.1,57,30.05,10.0,South,5.8,-,N/A,,Clear,190,2012-10-04 23:53:00
8:53 PM,63.0,52.0,67,30.05,10.0,South,8.1,-,N/A,,Clear,190,2012-10-05 00:53:00
9:53 PM,66.0,53.1,63,30.05,10.0,South,6.9,-,N/A,,Clear,190,2012-10-05 01:53:00
10:53 PM,66.0,53.1,63,30.04,10.0,SSW,10.4,-,N/A,,Clear,210,2012-10-05 02:53:00
11:53 PM,66.9,55.0,66,30.04,10.0,SW,10.4,-,N/A,,Overcast,220,2012-10-05 03:53:00